Flag for Bahrain Weather past 2 weeks in Manama, Bahrain

Now
63 °F

Clear.


Feels Like: 63 °F
Forecast: 61 / 67 °F
Wind: 7 mph from West

Location: Bahrain International Airport

Current Time: Dec 27, 2014 at 12:35:23 AM

Latest Report: Dec 27, 2014 at 12:00 AM


Visibility: 5 mi

Pressure: 30.12 "Hg

Humidity: 73%

Dew point: 54 °F

Location of ManamaLocation

Historic Weather in Manama — Graph

°F

Manama temperature yesterday

Maximum temperature yesterday: 66 °F (at 1:00 PM)
Minimum temperature yesterday: 59 °F (at 5:00 AM)
Average temperature yesterday: 63 °F

Past Weeks' High & Low Weather Summary

 TemperatureHumidityPressure
High79 °F (Dec 15, 1:00 PM)88% (Dec 14, 1:00 AM)30.30 "Hg (Dec 14, 1:00 AM)
Low59 °F (Dec 20, 6:00 AM)24% (Dec 21, 3:00 PM)29.89 "Hg (Dec 21, 3:00 PM)
Average69 °F62%30.11 "Hg
* Reported Dec 11 11:00 PM — Dec 26 11:00 PM, Manama, Weather by CustomWeather, © 2014

Note: Actual official high and low records may vary slightly from our data, if they occured in-between our weather recording intervals... More about our weather records

Advertising

Manama weather history for previous 24 hours

 ConditionsComfort  
Time TempWeatherWind HumidityBarometerVisibility
11:00 PM
Dec 26
63 °FClear.8 mph77%30.15 "Hg10 mi
10:00 PM64 °FClear.10 mph68%30.15 "Hg10 mi
9:00 PM64 °FClear.15 mph68%30.18 "Hg10 mi
8:00 PM64 °FClear.10 mph68%30.18 "Hg10 mi
7:00 PM64 °FClear.12 mph68%30.18 "Hg10 mi
6:00 PM64 °FClear.14 mph64%30.18 "Hg10 mi
5:00 PM66 °FClear.16 mph60%30.18 "Hg10 mi
4:00 PM66 °FSunny.18 mph60%30.18 "Hg10 mi
3:00 PM66 °FSunny.18 mph60%30.15 "Hg10 mi
2:00 PM66 °FSunny.18 mph52%30.18 "Hg10 mi
1:00 PM66 °FPassing clouds.17 mph52%30.18 "HgN/A
12:00 PM64 °FPassing clouds.17 mph52%30.21 "HgN/A
11:00 AM64 °FSunny.14 mph56%30.24 "Hg10 mi
10:00 AM63 °FSunny.10 mph59%30.24 "Hg10 mi
9:00 AM63 °FPassing clouds.10 mph64%30.27 "HgN/A
8:00 AM61 °FPassing clouds.7 mph68%30.24 "HgN/A
7:00 AM59 °FPassing clouds.8 mph72%30.24 "HgN/A
6:00 AM59 °FPassing clouds.8 mph68%30.21 "HgN/A
5:00 AM59 °FPassing clouds.8 mph72%30.21 "HgN/A
4:00 AM61 °FPassing clouds.9 mph68%30.21 "HgN/A
3:00 AM61 °FPassing clouds.10 mph72%30.21 "HgN/A
2:00 AM63 °FPassing clouds.10 mph68%30.21 "HgN/A
1:00 AM64 °FPassing clouds.10 mph56%30.21 "HgN/A
12:00 AM64 °FPassing clouds.12 mph60%30.21 "HgN/A
Weather by CustomWeather, © 2014

See weather overviewHow to use our weather pages